User: anonymous   Login
Location: Lafig�re
(44.4503°N, 4.0357°E)
Time: 22:47:06
(UTC+00:00)
Language:

Cosmos 1092 Rocket - Orbit

View from above orbital plane
View from above orbital plane
View from above satellite
View from above satellite

Ground track
Ground track

The orbit data is extracted from the following two-line orbital elements,

1 11327U 79030B   20328.09344375 -.00000007  00000-0 -21932-4 0  9993
2 11327  82.9501  84.1207 0026501 266.3651 267.1475 13.76946849 91836
Epoch (UTC): 23 November 2020 02:14:33
Eccentricity: 0.0026501
inclination: 82.9501°
perigee height: 955 km
apogee height: 994 km
right ascension of ascending node: 84.1207°
argument of perigee: 266.3651°
revolutions per day: 13.76946849
mean anomaly at epoch: 267.1475°
orbit number at epoch: 9183

The dashed part of the orbit path shows where the satellite is in the earth's shadow,  

DLR